| time (UTC) | temp C | wind direction | speed KPH | gust KPH | rain 1hr cm | rain 24hr cm | rain mn cm | humidity % | barometer mb |
| 20260506134725 | 26 | 194 | 4.8 | 9.7 | 0.00 | 0.00 | 0.00 | 34 | 1010.7 |
| 20260506133723 | 26 | 186 | 6.4 | 20.9 | 0.00 | 0.00 | 0.00 | 33 | 1010.7 |
| 20260506132721 | 27 | 183 | 4.8 | 9.7 | 0.00 | 0.00 | 0.00 | 33 | 1010.7 |
| 20260506131718 | 27 | 190 | 4.8 | 11.3 | 0.00 | 0.00 | 0.00 | 33 | 1010.8 |
| 20260506130737 | 27 | 204 | 6.4 | 25.7 | 0.00 | 0.00 | 0.00 | 33 | 1010.8 |
| 20260506125714 | 26 | 192 | 6.4 | 12.9 | 0.00 | 0.00 | 0.00 | 33 | 1010.9 |
| 20260506124732 | 27 | 184 | 6.4 | 16.1 | 0.00 | 0.00 | 0.00 | 33 | 1011.0 |
| 20260506123712 | 26 | 182 | 4.8 | 9.7 | 0.00 | 0.00 | 0.00 | 33 | 1011.0 |
| 20260506122709 | 26 | 196 | 4.8 | 12.9 | 0.00 | 0.00 | 0.00 | 33 | 1011.2 |
| 20260506121708 | 26 | 170 | 6.4 | 11.3 | 0.00 | 0.00 | 0.00 | 33 | 1011.2 |
| 20260506120706 | 26 | 185 | 6.4 | 33.8 | 0.00 | 0.00 | 0.00 | 32 | 1011.3 |
| 20260506115706 | 26 | 189 | 4.8 | 9.7 | 0.00 | 0.00 | 0.00 | 32 | 1011.4 |
| 20260506114703 | 26 | 178 | 6.4 | 11.3 | 0.00 | 0.00 | 0.00 | 32 | 1011.5 |
| 20260506113700 | 26 | 173 | 6.4 | 16.1 | 0.00 | 0.00 | 0.00 | 32 | 1011.5 |
| 20260506112657 | 26 | 181 | 6.4 | 14.5 | 0.00 | 0.00 | 0.00 | 35 | 1011.6 |
| 20260506111656 | 26 | 177 | 6.4 | 12.9 | 0.00 | 0.00 | 0.00 | 34 | 1011.6 |
| 20260506110655 | 26 | 172 | 6.4 | 24.1 | 0.00 | 0.00 | 0.00 | 35 | 1011.7 |
| 20260506105712 | 26 | 189 | 6.4 | 14.5 | 0.00 | 0.00 | 0.00 | 35 | 1011.8 |
| 20260506104649 | 26 | 177 | 6.4 | 17.7 | 0.00 | 0.00 | 0.00 | 35 | 1011.8 |
| 20260506103649 | 25 | 181 | 4.8 | 22.5 | 0.00 | 0.00 | 0.00 | 36 | 1011.8 |
| 20260506102646 | 25 | 194 | 3.2 | 11.3 | 0.00 | 0.00 | 0.00 | 36 | 1011.8 |
| 20260506101644 | 25 | 174 | 6.4 | 16.1 | 0.00 | 0.00 | 0.00 | 36 | 1011.9 |
| 20260506100642 | 25 | 177 | 6.4 | 11.3 | 0.00 | 0.00 | 0.00 | 37 | 1012.0 |
| 20260506095640 | 25 | 168 | 6.4 | 22.5 | 0.00 | 0.00 | 0.00 | 36 | 1012.1 |
| 20260506094637 | 25 | 184 | 6.4 | 14.5 | 0.00 | 0.00 | 0.00 | 38 | 1012.1 |
| 20260506093637 | 24 | 198 | 4.8 | 11.3 | 0.00 | 0.00 | 0.00 | 39 | 1012.2 |
| 20260506092633 | 23 | 190 | 6.4 | 17.7 | 0.00 | 0.00 | 0.00 | 39 | 1012.2 |
| 20260506091632 | 23 | 185 | 4.8 | 9.7 | 0.00 | 0.00 | 0.00 | 40 | 1012.2 |
| 20260506090630 | 22 | 185 | 4.8 | 11.3 | 0.00 | 0.00 | 0.00 | 42 | 1012.2 |
| 20260506085628 | 22 | 178 | 4.8 | 11.3 | 0.00 | 0.00 | 0.00 | 42 | 1012.2 |
| 20260506084625 | 22 | 177 | 6.4 | 12.9 | 0.00 | 0.00 | 0.00 | 43 | 1012.2 |
| 20260506083623 | 21 | 177 | 6.4 | 27.4 | 0.00 | 0.00 | 0.00 | 43 | 1012.2 |
| 20260506082623 | 20 | 187 | 6.4 | 22.5 | 0.00 | 0.00 | 0.00 | 45 | 1012.2 |
| 20260506081619 | 20 | 181 | 6.4 | 11.3 | 0.00 | 0.00 | 0.00 | 46 | 1012.2 |
| 20260506080617 | 19 | 171 | 6.4 | 19.3 | 0.00 | 0.00 | 0.00 | 46 | 1012.2 |
| 20260506072609 | 18 | 172 | 6.4 | 11.3 | 0.00 | 0.00 | 0.00 | 48 | 1012.3 |
| 20260506071607 | 17 | 176 | 6.4 | 11.3 | 0.00 | 0.00 | 0.00 | 49 | 1012.2 |
| 20260506070606 | 17 | 177 | 4.8 | 11.3 | 0.00 | 0.00 | 0.00 | 50 | 1012.2 |
| 20260506061616 | 15 | 175 | 6.4 | 11.3 | 0.00 | 0.00 | 0.00 | 52 | 1012.4 |
| 20260506060553 | 15 | 181 | 6.4 | 19.3 | 0.00 | 0.00 | 0.00 | 53 | 1012.4 |
| 20260506050541 | 10 | 190 | 3.2 | 14.5 | 0.00 | 0.00 | 0.00 | 64 | 1012.2 |
| 20260506044544 | 10 | 194 | 1.6 | 6.4 | 0.00 | 0.00 | 0.00 | 67 | 1012.3 |
| 20260506043535 | 9 | 202 | 3.2 | 8.0 | 0.00 | 0.00 | 0.00 | 67 | 1012.3 |
| 20260506042535 | 8 | 227 | 1.6 | 11.3 | 0.00 | 0.00 | 0.00 | 67 | 1012.2 |
| 20260506041535 | 8 | 225 | 1.6 | 4.8 | 0.00 | 0.00 | 0.00 | 67 | 1012.2 |
| 20260506040529 | 8 | 203 | 1.6 | 14.5 | 0.00 | 0.00 | 0.00 | 67 | 1012.1 |
| 20260506035529 | 8 | 202 | 3.2 | 8.0 | 0.00 | 0.00 | 0.00 | 66 | 1012.1 |
| 20260506034526 | 8 | 187 | 3.2 | 16.1 | 0.00 | 0.00 | 0.00 | 66 | 1012.0 |
| 20260506033524 | 8 | 194 | 3.2 | 12.9 | 0.00 | 0.00 | 0.00 | 66 | 1012.0 |
| 20260506032520 | 8 | 193 | 3.2 | 4.8 | 0.00 | 0.00 | 0.00 | 66 | 1011.9 |
| 20260506031520 | 8 | 195 | 3.2 | 6.4 | 0.00 | 0.00 | 0.00 | 66 | 1011.8 |
| 20260506030518 | 8 | 219 | 1.6 | 4.8 | 0.00 | 0.00 | 0.00 | 66 | 1011.7 |
| 20260506025516 | 8 | 194 | 3.2 | 9.7 | 0.00 | 0.00 | 0.00 | 66 | 1011.6 |
| 20260506024513 | 8 | 201 | 1.6 | 4.8 | 0.00 | 0.00 | 0.00 | 66 | 1011.6 |
| 20260506023511 | 8 | 207 | 3.2 | 11.3 | 0.00 | 0.00 | 0.00 | 67 | 1011.5 |
| 20260506022509 | 8 | 188 | 4.8 | 22.5 | 0.00 | 0.00 | 0.00 | 67 | 1011.5 |
| 20260506021508 | 8 | 200 | 3.2 | 19.3 | 0.00 | 0.00 | 0.00 | 67 | 1011.4 |
| 20260506020512 | 8 | 190 | 3.2 | 8.0 | 0.00 | 0.00 | 0.00 | 67 | 1011.4 |
| 20260506015503 | 8 | 185 | 4.8 | 9.7 | 0.00 | 0.00 | 0.00 | 67 | 1011.4 |
| 20260506014000 | 8 | 205 | 3.2 | 17.7 | 0.00 | 0.00 | 0.00 | 67 | 1011.5 |
| 20260506012957 | 9 | 225 | 1.6 | 17.7 | 0.00 | 0.00 | 0.00 | 66 | 1011.4 |
| 20260506011958 | 10 | 195 | 1.6 | 6.4 | 0.00 | 0.00 | 0.00 | 66 | 1011.4 |
| 20260506011014 | 10 | 202 | 3.2 | 17.7 | 0.00 | 0.00 | 0.00 | 66 | 1011.4 |
| 20260506005951 | 10 | 183 | 4.8 | 14.5 | 0.00 | 0.00 | 0.00 | 66 | 1011.3 |
| 20260506004950 | 10 | 172 | 6.4 | 9.7 | 0.00 | 0.00 | 0.00 | 66 | 1011.3 |
| 20260506003950 | 10 | 174 | 6.4 | 14.5 | 0.00 | 0.00 | 0.00 | 66 | 1011.2 |
| 20260506002946 | 10 | 181 | 6.4 | 11.3 | 0.00 | 0.00 | 0.00 | 65 | 1011.2 |
| 20260506002004 | 10 | 181 | 4.8 | 11.3 | 0.00 | 0.00 | 0.00 | 65 | 1011.2 |
| 20260506001003 | 11 | 191 | 3.2 | 8.0 | 0.00 | 0.00 | 0.00 | 64 | 1011.1 |
| 20260505235940 | 11 | 182 | 3.2 | 8.0 | 0.00 | 0.00 | 0.00 | 64 | 1011.1 |
| 20260505234938 | 11 | 188 | 3.2 | 9.7 | 0.00 | 0.00 | 0.00 | 63 | 1011.1 |
| 20260505233935 | 11 | 182 | 4.8 | 11.3 | 0.00 | 0.00 | 0.00 | 63 | 1011.0 |
| 20260505232934 | 11 | 183 | 6.4 | 17.7 | 0.00 | 0.00 | 0.00 | 62 | 1011.1 |
| 20260505231932 | 12 | 173 | 6.4 | 11.3 | 0.00 | 0.00 | 0.00 | 61 | 1011.1 |
| 20260505230929 | 12 | 173 | 6.4 | 11.3 | 0.00 | 0.00 | 0.00 | 60 | 1011.0 |
| 20260505225928 | 12 | 180 | 6.4 | 16.1 | 0.00 | 0.00 | 0.00 | 59 | 1011.1 |
| 20260505224926 | 12 | 188 | 3.2 | 9.7 | 0.00 | 0.00 | 0.00 | 58 | 1011.1 |
| 20260505223924 | 13 | 183 | 3.2 | 8.0 | 0.00 | 0.00 | 0.00 | 56 | 1011.1 |
| 20260505222922 | 13 | 195 | 3.2 | 14.5 | 0.00 | 0.00 | 0.00 | 55 | 1011.1 |
| 20260505221919 | 14 | 197 | 3.2 | 14.5 | 0.00 | 0.00 | 0.00 | 54 | 1011.1 |
| 20260505220917 | 15 | 188 | 1.6 | 6.4 | 0.00 | 0.00 | 0.00 | 53 | 1011.2 |
| 20260505215915 | 15 | 175 | 4.8 | 9.7 | 0.00 | 0.00 | 0.00 | 52 | 1011.1 |
| 20260505214914 | 15 | 184 | 3.2 | 8.0 | 0.00 | 0.00 | 0.00 | 51 | 1011.1 |
| 20260505213912 | 15 | 178 | 4.8 | 19.3 | 0.00 | 0.00 | 0.00 | 50 | 1011.0 |
| 20260505212909 | 16 | 190 | 3.2 | 9.7 | 0.00 | 0.00 | 0.00 | 50 | 1011.0 |
| 20260505211928 | 16 | 181 | 3.2 | 11.3 | 0.00 | 0.00 | 0.00 | 49 | 1011.0 |
| 20260505210906 | 16 | 183 | 3.2 | 11.3 | 0.00 | 0.00 | 0.00 | 49 | 1011.0 |
| 20260505205925 | 16 | 186 | 3.2 | 20.9 | 0.00 | 0.00 | 0.00 | 48 | 1011.1 |
| 20260505204921 | 16 | 182 | 3.2 | 8.0 | 0.00 | 0.00 | 0.00 | 48 | 1011.1 |
| 20260505203859 | 16 | 181 | 3.2 | 8.0 | 0.00 | 0.00 | 0.00 | 48 | 1011.1 |
| 20260505202857 | 16 | 174 | 4.8 | 19.3 | 0.00 | 0.00 | 0.00 | 48 | 1011.1 |
| 20260505201856 | 16 | 181 | 3.2 | 12.9 | 0.00 | 0.00 | 0.00 | 47 | 1011.1 |
| 20260505200854 | 17 | 209 | 3.2 | 22.5 | 0.00 | 0.00 | 0.00 | 48 | 1011.1 |
| 20260505195852 | 17 | 206 | 3.2 | 6.4 | 0.00 | 0.00 | 0.00 | 48 | 1011.1 |
| 20260505194850 | 17 | 202 | 3.2 | 9.7 | 0.00 | 0.00 | 0.00 | 47 | 1011.0 |
| 20260505193907 | 17 | 199 | 3.2 | 6.4 | 0.00 | 0.00 | 0.00 | 47 | 1010.9 |
| 20260505192846 | 17 | 203 | 3.2 | 6.4 | 0.00 | 0.00 | 0.00 | 46 | 1010.8 |
| 20260505191845 | 18 | 188 | 3.2 | 17.7 | 0.00 | 0.00 | 0.00 | 45 | 1010.8 |
| 20260505190842 | 18 | 198 | 3.2 | 25.7 | 0.00 | 0.00 | 0.00 | 44 | 1010.8 |
| 20260505185840 | 18 | 198 | 3.2 | 8.0 | 0.00 | 0.00 | 0.00 | 43 | 1010.7 |
| 20260505184837 | 19 | 204 | 3.2 | 9.7 | 0.00 | 0.00 | 0.00 | 42 | 1010.6 |
| 20260505183836 | 20 | 191 | 3.2 | 9.7 | 0.00 | 0.00 | 0.00 | 41 | 1010.5 |
| 20260505182833 | 20 | 178 | 6.4 | 11.3 | 0.00 | 0.00 | 0.00 | 40 | 1010.4 |
| 20260505181832 | 20 | 187 | 4.8 | 11.3 | 0.00 | 0.00 | 0.00 | 38 | 1010.4 |
| 20260505180850 | 21 | 190 | 3.2 | 4.8 | 0.00 | 0.00 | 0.00 | 36 | 1010.3 |
| 20260505175849 | 21 | 177 | 3.2 | 20.9 | 0.00 | 0.00 | 0.00 | 36 | 1010.2 |
| 20260505174827 | 22 | 187 | 3.2 | 9.7 | 0.00 | 0.00 | 0.00 | 35 | 1010.2 |
| 20260505173824 | 22 | 206 | 3.2 | 6.4 | 0.00 | 0.00 | 0.00 | 35 | 1010.2 |
| 20260505172822 | 22 | 199 | 3.2 | 12.9 | 0.00 | 0.00 | 0.00 | 34 | 1010.2 |
| 20260505171820 | 23 | 220 | 1.6 | 17.7 | 0.00 | 0.00 | 0.00 | 34 | 1010.2 |
| 20260505170818 | 23 | 216 | 1.6 | 4.8 | 0.00 | 0.00 | 0.00 | 34 | 1010.2 |
| 20260505165816 | 23 | 188 | 3.2 | 17.7 | 0.00 | 0.00 | 0.00 | 33 | 1010.2 |
| 20260505164815 | 24 | 214 | 1.6 | 3.2 | 0.00 | 0.00 | 0.00 | 34 | 1010.2 |
| 20260505163812 | 24 | 218 | 1.6 | 11.3 | 0.00 | 0.00 | 0.00 | 33 | 1010.3 |
| 20260505162810 | 25 | 206 | 1.6 | 4.8 | 0.00 | 0.00 | 0.00 | 33 | 1010.3 |
| 20260505161808 | 25 | 187 | 3.2 | 9.7 | 0.00 | 0.00 | 0.00 | 32 | 1010.3 |
| 20260505160825 | 25 | 187 | 3.2 | 9.7 | 0.00 | 0.00 | 0.00 | 32 | 1010.3 |
| 20260505152758 | 26 | 184 | 3.2 | 8.0 | 0.00 | 0.00 | 0.00 | 29 | 1010.4 |
| 20260505151756 | 26 | 185 | 3.2 | 6.4 | 0.00 | 0.00 | 0.00 | 29 | 1010.5 |
| 20260505150755 | 27 | 214 | 1.6 | 12.9 | 0.00 | 0.00 | 0.00 | 29 | 1010.6 |